Terug naar catalogus

STARLINK-30767

ActiefCommunicatieVLEO
NORAD 58126·PAYLOAD·🇺🇸 United States

Gelanceerd Oct 22, 2023 vanaf Cape Canaveral Space Force Station

Loading…

Volgende Passages (komende 24 uur)

TLE

VersSource: CelesTrak SupGP

Epoch: Sep 15, 2026, 03:19 UTC

1 58126C 23162J   26258.13868056  .00071637  00000+0  25939-2 0  2587
2 58126  43.0007 139.3761 0001461 273.9371 262.8957 15.27552268    15

Volg STARLINK-30767 in realtime met AllMySat

Download on the App Store